This demonstration page uses our WeatherBlox Daily Observations layout. Learn more.

Left ArrowRight Arrow

34.16533, -84.80231

Hourly Observations for June 30, 2022

Temp ( °F °C ) Dew Point ( °F °C ) Humidity (%) Winds ( mph kmh ) Pressure ( in mb ) Visibility ( mi km ) Precip ( " mm )
12:15 am 00:15 Mostly Cloudy 72 22 68 20 88 88 Calm 30.22 1023 10 16 0.00 0.00
12:35 am 00:35 Mostly Cloudy 72 22 70 21 94 94 Calm 30.21 1023 10 16 0.00 0.00
12:55 am 00:55 Mostly Clear 72 22 70 21 94 94 Calm 30.21 1023 10 16 0.00 0.00
1:15 am 01:15 Clear 72 22 70 21 94 94 Calm 30.21 1023 10 16 0.00 0.00
1:35 am 01:35 Mostly Clear 72 22 70 21 94 94 Calm 30.20 1023 10 16 0.00 0.00
1:55 am 01:55 Mostly Clear 72 22 70 21 94 94 Calm 30.20 1023 10 16 0.00 0.00
2:15 am 02:15 Mostly Clear 72 22 70 21 94 94 Calm 30.20 1023 10 16 0.00 0.00
2:35 am 02:35 Clear 72 22 70 21 94 94 Calm 30.20 1023 10 16 0.00 0.00
2:55 am 02:55 Clear 72 22 70 21 94 94 Calm 30.20 1023 10 16 0.00 0.00
3:15 am 03:15 Clear 70 21 70 21 100 100 SSW 3 6 30.20 1023 10 16 0.00 0.00
3:35 am 03:35 Clear 70 21 68 20 94 94 Calm 30.20 1023 10 16 0.00 0.00
3:55 am 03:55 Clear 70 21 68 20 94 94 Calm 30.20 1023 10 16 0.00 0.00
4:15 am 04:15 Clear 70 21 68 20 94 94 Calm 30.20 1023 10 16 0.00 0.00
4:35 am 04:35 Clear 70 21 68 20 94 94 Calm 30.20 1023 10 16 0.00 0.00
4:55 am 04:55 Clear 70 21 68 20 94 94 Calm 30.20 1023 10 16 0.00 0.00
5:15 am 05:15 Mostly Clear 70 21 68 20 94 94 Calm 30.20 1023 10 16 0.00 0.00
5:35 am 05:35 Mostly Clear 70 21 68 20 94 94 Calm 30.20 1023 10 16 0.00 0.00
5:55 am 05:55 Partly Cloudy 70 21 68 20 94 94 Calm 30.21 1023 10 16 0.00 0.00
6:15 am 06:15 Partly Cloudy 70 21 68 20 94 94 Calm 30.21 1023 10 16 0.00 0.00
6:35 am 06:35 Mostly Cloudy 70 21 68 20 94 94 Calm 30.21 1023 9 14 0.00 0.00
6:55 am 06:55 Mostly Sunny 70 21 68 20 94 94 Calm 30.21 1023 8 13 0.00 0.00
7:15 am 07:15 Sunny 70 21 70 21 100 100 Calm 30.22 1023 10 16 0.00 0.00
7:35 am 07:35 Sunny 70 21 70 21 100 100 Calm 30.22 1023 9 14 0.00 0.00
7:55 am 07:55 Sunny 72 22 70 21 94 94 Calm 30.22 1023 10 16 0.00 0.00
8:15 am 08:15 Mostly Sunny 72 22 70 21 94 94 Calm 30.23 1024 8 13 0.00 0.00
8:35 am 08:35 Partly Cloudy 72 22 72 22 100 100 Calm 30.23 1024 8 13 0.00 0.00
8:55 am 08:55 Sunny 73 23 72 22 94 94 Calm 30.22 1024 8 13 0.00 0.00
9:15 am 09:15 Sunny 75 24 72 22 89 89 Calm 30.22 1023 10 16 0.00 0.00
9:35 am 09:35 Sunny 75 24 72 22 89 89 Calm 30.22 1023 10 16 0.00 0.00
9:55 am 09:55 Sunny 77 25 72 22 83 83 E 5 7 30.22 1023 10 16 0.00 0.00
10:15 am 10:15 Sunny 79 26 72 22 79 79 Calm 30.21 1023 10 16 0.00 0.00
10:35 am 10:35 Sunny 81 27 72 22 74 74 VRB 6 9 30.20 1023 10 16 0.00 0.00
10:55 am 10:55 Sunny 82 28 72 22 70 70 NE 7 11 30.19 1022 10 16 0.00 0.00
11:15 am 11:15 Mostly Cloudy 82 28 72 22 70 70 E 5 7 30.20 1023 10 16 0.00 0.00
11:35 am 11:35 Partly Cloudy 82 28 72 22 70 70 Calm 30.19 1022 10 16 0.00 0.00
11:55 am 11:55 Mostly Sunny 84 29 70 21 62 62 VRB 5 7 30.19 1022 10 16 0.00 0.00
12:15 pm 12:15 Mostly Sunny 84 29 70 21 62 62 ESE 5 7 30.18 1022 10 16 0.00 0.00
12:35 pm 12:35 Sunny 84 29 70 21 62 62 Calm 30.17 1022 10 16 0.00 0.00
12:55 pm 12:55 Partly Cloudy 86 30 70 21 59 59 VRB 6 9 30.17 1022 10 16 0.00 0.00
1:15 pm 13:15 Partly Cloudy 86 30 70 21 59 59 E 7 11 30.16 1021 10 16 0.00 0.00
1:35 pm 13:35 Mostly Sunny 86 30 70 21 59 59 ENE 8 13 30.15 1021 10 16 0.00 0.00
1:55 pm 13:55 Sunny 88 31 70 21 55 55 E 5 7 30.14 1021 10 16 0.00 0.00
2:15 pm 14:15 Mostly Sunny 88 31 68 20 52 52 E 7 11 30.13 1020 10 16 0.00 0.00
2:35 pm 14:35 Mostly Cloudy 88 31 70 21 55 55 E 7 11 30.12 1020 10 16 0.00 0.00
2:55 pm 14:55 Mostly Sunny 88 31 70 21 55 55 E 8 13 30.11 1020 10 16 0.00 0.00
3:15 pm 15:15 Mostly Sunny 88 31 70 21 55 55 VRB 3 6 30.11 1020 10 16 0.00 0.00
3:35 pm 15:35 Mostly Sunny 88 31 70 21 55 55 ESE 9 15 30.09 1019 10 16 0.00 0.00
3:55 pm 15:55 Sunny 88 31 70 21 55 55 VRB 7 11 30.09 1019 10 16 0.00 0.00
4:15 pm 16:15 Sunny 90 32 70 21 52 52 VRB 7 11 30.08 1019 10 16 0.00 0.00
4:35 pm 16:35 Sunny 88 31 70 21 55 55 E 8 13 30.07 1018 10 16 0.00 0.00
4:55 pm 16:55 Sunny 86 30 68 20 55 55 ENE 5 7 30.08 1019 10 16 0.00 0.00
5:15 pm 17:15 Sunny 86 30 68 20 55 55 ESE 3 6 30.08 1019 10 16 0.00 0.00
5:35 pm 17:35 Partly Cloudy 86 30 70 21 59 59 Calm 30.07 1018 9 14 0.00 0.00
5:55 pm 17:55 Mostly Sunny 86 30 72 22 62 62 Calm 30.08 1019 10 16 0.00 0.00
6:15 pm 18:15 Mostly Sunny 86 30 72 22 62 62 Calm 30.07 1018 10 16 0.00 0.00
6:35 pm 18:35 Mostly Cloudy with Light Rain 86 30 73 23 66 66 SE 13 20 30.07 1018 7 11 0.00 0.00
6:55 pm 18:55 Cloudy with Light Rain 75 24 70 21 83 83 Calm 30.10 1019 0 0 0.75 19.05
7:15 pm 19:15 Mostly Cloudy with Nearby Thunderstorms 77 25 72 22 83 83 Calm 30.09 1019 10 16 0.00 0.00
7:35 pm 19:35 Sunny 77 25 73 23 89 89 Calm 30.09 1019 10 16 0.00 0.00
7:55 pm 19:55 Sunny 77 25 73 23 89 89 Calm 30.11 1020 10 16 0.03 0.76
8:15 pm 20:15 Partly Cloudy 77 25 73 23 89 89 Calm 30.11 1020 9 14 0.00 0.00
8:35 pm 20:35 Mostly Cloudy 77 25 73 23 89 89 SSE 9 15 30.11 1020 10 16 0.00 0.00
8:55 pm 20:55 Mostly Sunny 77 25 70 21 79 79 S 7 11 30.11 1020 10 16 0.00 0.00
9:15 pm 21:15 Mostly Clear 75 24 70 21 83 83 Calm 30.11 1020 10 16 0.00 0.00
9:35 pm 21:35 Partly Cloudy 75 24 72 22 89 89 Calm 30.11 1020 10 16 0.00 0.00
9:55 pm 21:55 Mostly Cloudy with Nearby Thunderstorms 75 24 72 22 89 89 Calm 30.12 1020 10 16 0.00 0.00
10:15 pm 22:15 Cloudy 73 23 72 22 94 94 Calm 30.12 1020 10 16 0.00 0.00
10:35 pm 22:35 Cloudy 73 23 70 21 89 89 Calm 30.13 1020 10 16 0.00 0.00
10:55 pm 22:55 Cloudy 73 23 70 21 89 89 Calm 30.13 1020 10 16 0.00 0.00
11:15 pm 23:15 Cloudy 73 23 70 21 89 89 Calm 30.14 1021 10 16 0.00 0.00
11:35 pm 23:35 Cloudy 73 23 70 21 89 89 Calm 30.14 1021 10 16 0.00 0.00
11:55 pm 23:55 Cloudy 73 23 72 22 94 94 Calm 30.14 1021 10 16 0.00 0.00

Powered by AerisWeather